Probability
19 19 18 17 16 16 12 9 9 8 6 5 4 3 3 3 3 3 3 1 0 0 0 0 0 0 0 1 2 2 1 0 0 0 0 0 0 0 0 0 0 0 0
18 18 17 17 17 16 12 8 7 7 6 5 4 3 3 3 3 3 2 0 0 0 0 0 0 0 0 0 1 1 0 0 0 0 0 0 0 0 0 0 0 0 0
15 15 16 16 16 15 12 8 7 6 6 5 4 3 3 3 3 2 1 0 0 0 0 0 0 0 0 0 0 0 0 0 0 0 0 0 0 0 0 0 0 0 0
11 11 12 15 15 14 11 9 7 6 5 4 4 4 3 2 1 1 0 0 0 0 0 0 0 0 0 0 0 0 0 0 0 0 0 0 0 0 0 0 0 0 0
10 9 10 12 13 11 8 7 7 6 4 3 4 4 2 1 0 0 0 0 0 0 0 0 0 0 0 0 0 0 0 0 0 0 0 0 0 0 0 0 0 0 0
10 9 9 10 10 8 6 5 5 4 3 2 2 2 1 0 0 0 0 0 0 0 0 0 0 0 0 0 0 0 0 0 0 0 0 0 0 0 0 0 0 0 0
9 9 9 8 7 6 5 4 5 4 3 2 1 0 0 0 0 0 0 0 0 0 0 0 0 0 0 0 0 0 0 0 0 0 0 0 0 0 0 0 0 0 0
8 8 8 7 6 6 6 5 6 6 5 4 2 1 1 0 0 0 0 0 0 0 0 0 0 0 0 0 0 0 0 0 0 0 0 0 0 0 0 0 0 0 0
7 7 7 6 6 7 7 7 7 7 7 5 3 2 1 0 0 0 0 0 0 0 0 0 0 0 0 0 0 0 0 0 0 0 0 0 0 0 0 0 0 0 0
6 6 6 6 6 7 8 8 7 6 5 4 2 2 1 0 0 0 0 0 0 0 0 0 0 0 0 0 0 0 0 0 0 0 0 0 0 0 0 0 0 0 0
6 6 6 6 5 6 8 8 7 5 4 3 2 2 1 0 0 0 0 0 0 0 0 0 0 0 0 0 0 0 0 0 0 0 0 0 0 0 0 0 0 0 0
5 6 6 5 5 5 6 7 7 5 4 3 2 1 1 0 0 0 0 0 0 0 0 0 0 0 0 0 0 0 0 0 0 0 0 0 0 0 0 0 0 0 1
5 5 4 4 4 4 4 5 5 4 2 1 1 0 0 0 0 0 0 0 0 0 0 0 0 0 0 0 0 0 0 0 0 0 0 0 0 0 0 0 0 0 1
5 4 3 3 4 4 4 3 3 2 0 0 0 0 0 0 0 0 0 0 0 0 0 0 0 0 0 0 0 0 0 0 0 0 0 0 0 0 0 0 0 0 1
4 3 3 3 3 3 3 1 1 0 0 0 0 0 0 0 0 0 0 0 0 0 0 0 0 0 0 0 0 0 0 0 0 0 0 0 0 0 0 0 0 0 0
2 2 2 2 2 2 1 0 0 0 0 0 0 0 0 0 0 0 0 0 0 0 0 0 0 0 0 0 0 0 0 1 1 0 0 0 0 0 0 0 0 0 0
1 1 1 1 1 1 0 0 1 0 0 0 0 0 0 0 0 0 0 0 0 0 0 0 0 0 0 0 1 1 1 1 2 1 0 0 0 0 0 0 0 0 0
0 0 0 0 0 0 0 0 0 0 0 0 0 0 0 0 0 0 0 0 0 0 0 0 1 1 1 1 2 1 1 1 2 1 0 0 0 0 0 0 0 0 0
0 0 0 0 0 0 0 0 0 0 0 0 0 0 0 0 0 0 0 0 0 0 0 1 2 2 2 2 2 1 0 0 1 1 0 0 0 0 0 0 0 0 0
0 0 0 0 0 0 0 0 0 0 0 0 0 0 0 0 0 0 0 0 0 1 1 2 3 3 2 1 1 0 0 0 0 0 0 0 0 0 0 0 0 0 0
0 0 0 0 0 0 0 0 0 0 0 0 0 0 0 0 0 0 0 1 1 2 2 2 2 1 1 0 0 0 0 0 0 0 0 0 0 0 0 0 0 0 0
0 0 0 0 0 0 0 0 0 0 0 0 0 0 0 0 0 1 1 2 2 2 2 1 1 0 0 0 0 0 0 0 0 0 1 1 1 1 0 0 0 0 0
0 0 0 0 0 0 0 0 0 0 0 0 0 0 0 1 1 2 2 2 1 1 1 0 0 0 0 0 0 0 0 0 0 0 0 1 2 1 0 0 0 0 0
0 0 0 0 0 0 0 0 0 0 0 0 0 0 1 2 2 2 2 1 0 0 0 0 0 0 0 0 0 0 0 0 0 0 0 0 1 1 0 0 0 0 0
0 0 0 0 0 0 0 0 0 0 0 0 1 1 2 2 1 1 1 0 0 0 0 0 0 0 0 0 0 0 0 0 0 0 0 0 0 0 0 0 0 0 0
0 0 0 0 0 0 0 0 0 0 0 1 2 2 2 1 0 0 0 0 0 0 0 0 0 0 0 0 0 0 0 0 0 0 0 0 0 0 0 0 0 0 0
Wind_Speed
4 4 3 3 2 2 2 2 1 1 0 0 1 1 2 2 2 3 3 3 3 3 3 3 3 3 2 2 2 2 2 1 2 2 1 2 2 2 2 2 2 3 4
4 4 3 2 2 2 1 1 1 0 0 0 1 1 2 2 2 3 3 3 3 3 3 3 3 3 3 3 2 3 2 2 2 3 2 2 2 2 3 3 3 3 3
4 4 4 3 2 2 1 1 0 0 0 1 1 1 2 3 3 3 3 3 3 3 3 3 3 3 3 2 3 3 2 2 1 2 2 2 2 2 2 3 4 3 3
4 3 3 3 2 2 1 1 0 0 1 1 1 2 2 2 3 3 4 3 3 3 3 2 2 3 3 4 3 3 2 2 2 2 2 2 2 2 2 2 2 2 2
4 3 3 3 2 2 1 0 0 0 1 1 1 1 2 2 3 4 4 4 3 3 3 3 2 2 3 3 3 3 3 2 2 2 2 1 1 1 2 2 2 2 2
3 3 3 2 2 2 1 1 0 0 1 1 1 2 2 3 4 4 4 4 4 3 3 3 3 3 3 3 5 5 4 3 3 2 2 2 2 2 2 3 2 2 2
3 3 3 2 2 2 1 1 0 1 1 1 1 1 1 2 3 4 4 3 4 3 3 3 4 4 3 3 4 4 5 6 6 4 3 3 3 2 2 3 2 2 3
3 3 2 2 2 2 2 1 0 0 1 1 1 1 1 2 3 4 5 4 4 4 3 3 3 3 4 5 5 4 3 3 5 4 4 4 4 2 3 4 4 4 4
4 3 3 2 2 2 2 1 1 1 1 2 2 2 1 1 3 4 4 3 3 4 4 3 3 2 3 5 4 4 4 4 4 4 5 6 6 6 4 2 3 3 3
4 3 2 1 1 2 1 1 1 1 2 3 2 2 2 2 3 4 4 3 3 4 3 2 2 2 3 3 3 4 4 5 5 4 4 5 6 7 7 5 4 3 3
3 2 2 1 1 2 1 1 2 2 3 3 3 3 2 3 3 4 5 3 4 4 3 2 2 4 5 5 4 3 5 6 5 5 4 4 4 4 4 5 5 4 4
3 2 2 2 2 1 1 2 3 3 3 4 4 3 2 2 3 3 4 5 6 5 4 3 2 5 7 8 6 7 8 7 5 4 4 4 4 3 4 4 6 6 5
3 2 2 2 2 2 2 3 3 3 3 3 3 2 1 1 1 2 4 6 6 4 5 6 7 9 9 8 9 9 7 5 4 4 4 4 4 4 3 3 4 5 5
3 2 3 3 3 2 2 3 2 2 2 2 2 2 1 1 0 1 2 3 5 4 4 6 8 10 9 9 8 6 5 5 5 4 4 4 4 3 3 3 3 3 4
3 3 3 3 3 2 1 1 2 1 2 2 3 3 2 2 2 3 3 4 4 4 5 5 5 5 4 4 4 4 5 5 5 4 4 4 4 4 3 3 3 3 4
3 3 3 2 2 3 2 1 1 3 3 3 4 4 4 4 5 6 6 6 7 5 4 5 6 5 5 4 4 4 4 4 4 4 4 4 4 4 4 4 3 4 4
3 2 2 2 2 2 2 2 2 2 4 5 6 6 7 7 8 9 9 8 9 5 4 6 6 5 5 4 4 4 4 4 3 4 4 4 4 4 4 4 4 4 4
3 3 3 3 3 2 2 2 3 2 2 3 5 8 9 9 10 10 8 6 6 4 5 5 5 5 4 4 4 4 4 3 3 4 4 4 4 4 4 4 4 4 4
3 3 2 3 3 3 3 3 3 2 3 2 1 2 6 8 9 9 5 4 6 5 5 5 4 4 4 4 4 4 4 4 4 4 4 4 4 4 4 5 4 5 5
3 3 3 3 3 3 3 3 2 2 2 2 2 2 1 2 3 4 3 4 4 5 5 5 5 5 5 4 4 4 4 4 4 4 4 4 4 4 5 5 5 5 4
3 4 5 5 4 3 2 2 3 3 3 3 2 2 2 3 4 4 3 3 3 4 4 5 5 5 5 4 4 5 5 4 4 4 4 5 5 4 4 5 5 5 5
2 3 3 3 2 2 2 3 3 3 4 4 3 2 2 3 3 3 4 4 3 3 4 4 5 5 5 5 5 4 4 4 4 4 4 5 5 5 4 5 5 5 4
3 3 2 1 1 1 3 3 3 3 4 3 3 3 2 3 3 3 3 3 4 4 4 4 3 4 5 4 4 4 4 4 5 5 5 5 5 5 5 5 6 6 6
3 3 2 1 2 2 2 2 2 3 4 3 3 3 3 3 3 4 4 4 4 4 4 3 3 6 7 5 4 4 4 4 5 5 7 7 7 6 6 6 7 8 7
3 3 3 2 2 2 2 3 3 3 4 4 3 3 3 3 4 4 4 4 5 5 6 5 4 6 7 8 7 6 4 4 4 5 6 6 7 8 8 8 7 8 8
3 3 3 2 2 2 2 3 3 4 4 4 4 3 3 4 4 4 4 4 5 5 6 5 7 8 9 8 8 7 6 6 6 7 6 6 7 7 8 7 10 9 8
Wind_Direction
145 136 130 142 150 161 164 144 129 139 187 286 286 292 304 310 309 304 299 307 312 314 315 318 316 311 314 310 309 304 288 254 261 281 279 277 279 262 250 261 242 215 212
148 144 152 157 153 161 141 119 116 134 225 265 290 293 300 308 304 306 308 322 321 323 323 328 333 331 334 335 333 322 302 268 248 266 273 270 268 252 246 249 253 242 224
149 150 153 153 154 152 150 137 117 298 302 306 308 316 324 321 321 321 316 321 322 326 331 337 336 336 338 330 315 310 302 306 274 265 268 266 262 260 260 264 260 258 242
146 143 141 151 151 153 154 149 154 159 300 310 322 326 329 334 345 339 331 323 320 328 337 334 337 333 330 318 308 308 308 306 286 268 263 259 264 268 263 262 273 263 260
141 138 139 142 143 138 135 141 181 212 314 333 328 326 332 337 351 348 325 321 333 338 334 324 323 328 321 306 310 314 313 299 295 289 278 280 280 281 278 275 270 266 259
151 149 143 142 149 158 174 188 189 50 360 344 337 334 344 349 8 356 337 329 327 321 313 309 295 285 284 281 280 280 275 281 291 286 277 273 275 272 278 282 286 281 276
157 156 162 170 173 180 178 137 77 21 355 339 331 338 351 356 339 333 326 306 305 305 303 300 307 322 337 321 295 275 252 245 241 252 266 268 268 269 280 284 280 274 265
163 168 176 187 177 169 149 124 80 359 321 305 312 307 304 328 325 322 318 292 285 289 287 292 298 307 336 330 310 308 292 270 246 232 245 256 259 262 258 260 260 265 261
176 178 182 194 185 170 152 164 194 228 262 269 277 288 300 288 290 304 314 292 290 290 286 298 297 314 333 331 316 313 312 303 289 268 245 247 254 258 255 275 268 265 272
187 185 178 181 188 170 171 196 230 246 252 264 265 269 272 269 262 271 289 283 291 293 291 295 311 295 296 319 314 312 308 309 318 308 286 265 249 247 235 222 242 254 268
187 182 172 191 200 180 182 230 240 249 253 256 257 256 252 253 242 256 261 268 288 292 294 296 297 300 299 298 290 276 274 289 296 287 278 267 253 243 227 216 221 226 241
190 190 191 202 214 185 198 232 239 248 252 247 247 245 237 229 237 249 255 257 272 284 290 293 285 293 295 292 283 269 274 285 279 278 275 268 258 252 244 228 217 220 224
194 193 205 205 201 208 232 244 247 251 261 260 259 259 235 218 220 245 254 274 278 275 294 296 290 284 286 279 264 263 268 262 258 263 268 269 261 251 246 241 228 222 227
193 198 213 213 210 214 239 257 260 273 288 299 303 307 307 298 1 299 292 283 282 280 289 295 287 276 269 266 270 261 243 244 247 252 257 263 266 256 246 240 239 235 233
204 215 219 224 218 219 231 278 273 275 266 276 306 317 319 313 299 289 295 302 311 324 319 292 285 283 272 261 259 261 251 243 243 248 254 258 259 256 255 254 248 244 244
203 212 227 228 218 213 201 239 269 245 247 249 250 259 275 262 271 279 284 288 292 302 303 283 280 278 282 282 275 269 264 260 252 253 255 255 258 259 257 252 247 247 254
202 216 245 251 247 239 214 216 245 261 258 261 259 257 253 265 275 278 283 294 291 276 263 272 274 274 278 279 279 279 276 271 263 261 259 258 260 263 263 261 254 253 254
201 207 236 257 267 269 262 252 246 246 247 249 247 243 250 258 266 275 289 308 290 255 254 267 276 279 277 280 284 283 281 281 278 276 271 265 260 262 266 266 262 260 263
206 216 228 254 266 268 269 276 282 287 289 288 278 240 245 259 268 270 267 260 275 287 288 287 291 296 297 290 284 283 286 287 283 278 277 275 271 267 269 271 272 273 265
203 228 254 265 263 264 270 285 296 298 300 303 303 312 288 264 276 275 251 252 270 283 293 303 307 307 305 302 297 293 294 294 295 293 289 280 274 273 274 275 274 272 264
209 202 217 246 260 275 288 297 299 296 298 299 298 301 277 276 287 299 301 286 284 294 300 301 300 302 304 305 307 306 306 305 303 304 305 303 298 288 281 278 275 272 271
255 241 220 238 250 256 275 280 285 294 304 308 309 308 281 287 304 314 315 317 314 305 304 304 311 317 320 321 325 325 319 315 313 314 315 314 311 305 302 299 297 294 290
256 261 257 250 262 260 261 273 287 300 309 316 322 326 311 302 306 307 308 307 305 305 309 312 317 324 326 323 326 327 328 331 327 321 314 308 308 307 303 297 293 293 291
269 273 278 276 266 271 287 305 309 308 308 307 310 309 309 309 309 311 311 312 315 316 320 324 327 322 322 325 325 330 346 338 327 322 320 312 306 301 300 297 294 293 291
275 281 284 281 289 302 307 307 309 310 312 315 313 315 321 322 321 326 333 340 340 340 342 340 337 333 331 333 339 349 346 331 328 324 312 304 303 303 299 295 295 294 294
269 283 289 298 308 309 306 303 311 321 323 327 329 332 333 332 334 343 348 348 348 348 342 342 349 350 351 353 359 359 351 341 333 321 305 296 296 297 302 301 302 301 302